Weather History for KBLI - February, 2013

Change the Weather History Date:

Monday, February 4, 2013

  Actual Average Record
Temperature  
Mean Temperature 46 °F 40 °F  
Max Temperature 48 °F 47 °F 64 °F (1963)
Min Temperature 42 °F 33 °F 16 °F (1989)
Degree Days  
Heating Degree Days 20 25  
Month to date heating degree days 100  
Cooling Degree Days 0 0  
Month to date cooling degree days 0  
Year to date cooling degree days 0  
Moisture  
Dew Point 41 °F    
Average Humidity 85    
Maximum Humidity 96    
Minimum Humidity 71    
Precipitation  
Precipitation 0.00 in 0.12 in 1.41 in (1965)
Month to date precipitation 0.47  
Year to date precipitation 5.14  
Sea Level Pressure  
Sea Level Pressure 30.08 in    
Wind  
Wind Speed 8 mph (SSE)    
Max Wind Speed 16 mph    
Max Gust Speed 23 mph    
Visibility 10 miles    
Events Rain    
T = Trace of Precipitation, MM = Missing Value Source: NWS Daily Summary

Daily Weather History Graph

Daily Weather History Graph

Search for Another Location

Airport or City:

Trip Planner

Search our weather history database for the weather conditions in past years. The results will help you decide how hot, cold, wet, or windy it might be!

Date:

Astronomy

Feb. 04, 2013 Rise Set
Actual Time 7:35 AM PST 5:13 PM PST
Civil Twilight 7:01 AM PST 5:47 PM PST
Nautical Twilight 6:24 AM PST 6:24 PM PST
Astronomical Twilight 5:47 AM PST 7:01 PM PST
Moon 2:24 AM PST (2/4) 11:34 AM PST (2/4)
Length of Visible Light 10h 45m
Length of Day
9h 38m
Last Quarter, 36% of the Moon is Illuminated
Feb 4
Last Quarter
Feb 9
New
Feb 17
First Quarter
Feb 25
Full
Mar 4
Last Quarter

Hourly Weather History & Observations

Time (PST) Temp. Windchill Dew Point Humidity Pressure Visibility Wind Dir Wind Speed Gust Speed Precip Events Conditions
12:53 AM 44.1 °F 40.8 °F 41.0 °F 89% 30.19 in 10.0 mi South 5.8 mph - N/A   Mostly Cloudy
2:53 AM 44.6 °F 41.4 °F 41.0 °F 87% 30.15 in 10.0 mi SSE 5.8 mph - N/A   Overcast
3:06 AM 44.6 °F 41.4 °F 42.8 °F 93% 30.16 in 10.0 mi SSE 5.8 mph - N/A   Overcast
3:15 AM 44.6 °F 40.2 °F 42.8 °F 93% 30.16 in 10.0 mi SSE 8.1 mph - N/A   Overcast
3:53 AM 44.6 °F 40.2 °F 42.8 °F 93% 30.12 in 10.0 mi SSE 8.1 mph - N/A   Overcast
4:03 AM 44.6 °F 41.4 °F 42.8 °F 93% 30.13 in 10.0 mi South 5.8 mph - N/A   Overcast
4:39 AM 44.6 °F 38.1 °F 42.8 °F 93% 30.14 in 10.0 mi SSE 13.8 mph - N/A   Overcast
4:53 AM 45.0 °F 38.9 °F 42.1 °F 90% 30.16 in 10.0 mi SSE 12.7 mph 18.4 mph N/A   Overcast
5:28 AM 44.6 °F 38.8 °F 42.8 °F 93% 30.13 in 10.0 mi South 11.5 mph 18.4 mph N/A   Overcast
5:53 AM 45.0 °F 38.2 °F 41.0 °F 86% 30.15 in 10.0 mi SSE 15.0 mph 20.7 mph N/A   Overcast
6:53 AM 45.0 °F 38.9 °F 41.0 °F 86% 30.14 in 10.0 mi SSE 12.7 mph 19.6 mph N/A   Overcast
7:53 AM 45.0 °F 38.5 °F 39.9 °F 82% 30.15 in 10.0 mi SSE 13.8 mph 19.6 mph N/A   Overcast
8:01 AM 44.6 °F 38.4 °F 39.2 °F 81% 30.12 in 10.0 mi SSE 12.7 mph 20.7 mph N/A   Mostly Cloudy
8:53 AM 46.0 °F 39.6 °F 39.9 °F 79% 30.15 in 10.0 mi SSE 15.0 mph 23.0 mph N/A   Overcast
9:53 AM 46.0 °F 40.2 °F 39.9 °F 79% 30.15 in 10.0 mi SSE 12.7 mph 20.7 mph N/A   Mostly Cloudy
10:53 AM 46.9 °F - 39.9 °F 77% 30.15 in 10.0 mi South 16.1 mph 21.9 mph N/A   Overcast
11:53 AM 46.9 °F - 39.9 °F 77% 30.15 in 10.0 mi South 9.2 mph 20.7 mph N/A   Scattered Clouds
12:53 PM 46.9 °F - 39.9 °F 77% 30.12 in 10.0 mi SSE 11.5 mph 20.7 mph N/A   Scattered Clouds
1:00 PM 48.2 °F - 41.0 °F 76% 30.09 in 10.0 mi South 12.7 mph 19.6 mph N/A   Mostly Cloudy
1:07 PM 48.2 °F - 39.2 °F 71% 30.08 in 10.0 mi South 15.0 mph 23.0 mph N/A   Mostly Cloudy
1:53 PM 48.0 °F - 39.9 °F 74% 30.09 in 10.0 mi South 9.2 mph 17.3 mph N/A   Clear
2:53 PM 48.9 °F - 39.9 °F 71% 30.08 in 10.0 mi South 6.9 mph - N/A   Clear
3:53 PM 48.2 °F - 41.0 °F 76% 30.02 in 10.0 mi South 3.5 mph - N/A   Clear
4:53 PM 46.9 °F - 41.0 °F 80% 30.04 in 10.0 mi NNE 4.6 mph - N/A   Mostly Cloudy
5:53 PM 44.1 °F 42.5 °F 39.9 °F 85% 30.01 in 10.0 mi NNE 3.5 mph - N/A   Mostly Cloudy
6:53 PM 45.0 °F 41.8 °F 41.0 °F 86% 29.98 in 10.0 mi NNE 5.8 mph - N/A   Overcast
7:53 PM 44.1 °F - 41.0 °F 89% 29.96 in 10.0 mi Calm Calm - 0.00 in Rain Light Rain
8:53 PM 44.1 °F 41.5 °F 41.0 °F 89% 29.93 in 10.0 mi North 4.6 mph - 0.00 in   Overcast
9:53 PM 43.0 °F 40.3 °F 41.0 °F 93% 29.90 in 10.0 mi North 4.6 mph - N/A   Partly Cloudy
10:53 PM 43.0 °F - 41.0 °F 93% 29.88 in 10.0 mi Calm Calm - N/A   Overcast
11:53 PM 42.1 °F - 41.0 °F 96% 29.87 in 9.0 mi Calm Calm - N/A   Overcast